When you browse on this site, cookies collect data to enhance your experience and personalize the content and advertising you see.
Visit our Privacy Policy to learn more. By continuing to use the site, you agree to this use of cookies and data.
  • In Romania
  • List of Countries
  • For 7 days
  • Water Temperature
  • Satellite Maps
  • Weather Map
  • Weather Widgets
  • user-avatar
    Login

    Hourly Weather Kamenka-Denisovo

    Today, 18 February, Monday

    Time Temperature Precipitation Wind Pressure Humidity
    00:00 -6°C° 0 mm 8 mps 736 mmHg 82%
    01:00 -6°C° 0 mm 8 mps 737 mmHg 82%
    02:00 -6°C° 0 mm 8 mps 738 mmHg 82%
    03:00 -6°C° 0 mm 5 mps 738 mmHg 86%
    04:00 -6°C° 0 mm 6 mps 738 mmHg 85%
    05:00 -8°C° 0 mm 7 mps 739 mmHg 84%
    06:00 -8°C° 0 mm 8 mps 740 mmHg 82%
    07:00 -8°C° 0 mm 8 mps 741 mmHg 82%
    08:00 -8°C° 0 mm 8 mps 742 mmHg 82%
    09:00 -10°C° 0 mm 8 mps 742 mmHg 82%
    10:00 -8°C° 0 mm 8 mps 743 mmHg 81%
    11:00 -8°C° 0 mm 8 mps 744 mmHg 80%
    12:00 -8°C° 0 mm 8 mps 744 mmHg 79%
    13:00 -7°C° 0 mm 8 mps 745 mmHg 79%
    14:00 -7°C° 0 mm 8 mps 746 mmHg 79%
    15:00 -7°C° 0 mm 7 mps 746 mmHg 79%
    16:00 -8°C° 0 mm 6 mps 747 mmHg 81%
    17:00 -8°C° 0 mm 6 mps 747 mmHg 82%
    18:00 -8°C° 0 mm 5 mps 748 mmHg 83%
    19:00 -10°C° 0 mm 5 mps 749 mmHg 85%
    20:00 -9°C° 0 mm 4 mps 749 mmHg 86%
    21:00 -10°C° 0 mm 4 mps 750 mmHg 88%
    22:00 -11°C° 0 mm 4 mps 750 mmHg 89%
    23:00 -12°C° 0 mm 3 mps 750 mmHg 90%

    Tomorrow, 19 February, Tuesday

    Time Temperature Precipitation Wind Pressure Humidity
    00:00 -14°C° 0 mm 3 mps 751 mmHg 91%
    01:00 -13°C° 0 mm 2 mps 751 mmHg 92%
    02:00 -14°C° 0 mm 2 mps 751 mmHg 92%
    03:00 -14°C° 0 mm 2 mps 752 mmHg 92%
    04:00 -14°C° 0 mm 2 mps 752 mmHg 92%
    05:00 -15°C° 0 mm 2 mps 752 mmHg 92%
    06:00 -15°C° 0 mm 2 mps 752 mmHg 91%
    07:00 -14°C° 0 mm 2 mps 752 mmHg 91%
    08:00 -15°C° 0 mm 3 mps 752 mmHg 91%
    09:00 -15°C° 0 mm 3 mps 751 mmHg 90%
    10:00 -14°C° 0 mm 4 mps 751 mmHg 89%
    11:00 -11°C° 0 mm 4 mps 751 mmHg 87%
    12:00 -11°C° 0 mm 5 mps 750 mmHg 85%
    13:00 -10°C° 0 mm 5 mps 750 mmHg 84%
    14:00 -9°C° 0 mm 6 mps 749 mmHg 83%
    15:00 -8°C° 0 mm 6 mps 749 mmHg 82%
    16:00 -8°C° 0 mm 6 mps 748 mmHg 83%
    17:00 -8°C° 0 mm 6 mps 748 mmHg 84%
    18:00 -9°C° 0 mm 6 mps 748 mmHg 85%
    19:00 -9°C° 0 mm 6 mps 747 mmHg 85%
    20:00 -9°C° 0 mm 6 mps 747 mmHg 86%
    21:00 -9°C° 0 mm 6 mps 747 mmHg 86%
    22:00 -9°C° 0 mm 6 mps 746 mmHg 85%
    23:00 -10°C° 0 mm 6 mps 746 mmHg 85%

    Day after tomorrow, 20 February, Wednesday

    Time Temperature Precipitation Wind Pressure Humidity
    00:00 -10°C° 0 mm 6 mps 745 mmHg 85%
    01:00 -10°C° 0 mm 6 mps 745 mmHg 85%
    02:00 -10°C° 0 mm 6 mps 744 mmHg 85%
    03:00 -11°C° 0 mm 7 mps 744 mmHg 85%
    04:00 -11°C° 0 mm 7 mps 743 mmHg 86%
    05:00 -11°C° 0 mm 7 mps 742 mmHg 87%
    06:00 -9°C° 0 mm 7 mps 742 mmHg 88%
    07:00 -9°C° 0 mm 7 mps 741 mmHg 89%
    08:00 -8°C° 0 mm 7 mps 741 mmHg 90%
    09:00 -7°C° 0 mm 7 mps 741 mmHg 90%
    10:00 -6°C° 0 mm 7 mps 741 mmHg 90%
    11:00 -6°C° 0 mm 7 mps 740 mmHg 90%
    12:00 -4°C° 0 mm 7 mps 740 mmHg 90%
    13:00 -3°C° 0 mm 7 mps 740 mmHg 90%
    14:00 -3°C° 0 mm 7 mps 739 mmHg 90%
    15:00 -3°C° 0 mm 7 mps 739 mmHg 90%
    16:00 -3°C° 0.1 mm 6 mps 739 mmHg 90%
    17:00 -2°C° 0.1 mm 6 mps 739 mmHg 90%
    18:00 -2°C° 0.1 mm 6 mps 739 mmHg 91%
    19:00 -2°C° 0 mm 6 mps 739 mmHg 91%
    20:00 -2°C° 0 mm 6 mps 739 mmHg 92%
    21:00 -1°C° 0 mm 5 mps 738 mmHg 92%
    22:00 -2°C° 0 mm 6 mps 738 mmHg 91%
    23:00 -2°C° 0 mm 6 mps 738 mmHg 91%

    21 February, Thursday

    Time Temperature Precipitation Wind Pressure Humidity
    00:00 -3°C° 0 mm 6 mps 738 mmHg 90%
    01:00 -3°C° 0 mm 6 mps 737 mmHg 91%
    02:00 -3°C° 0 mm 6 mps 737 mmHg 91%
    03:00 -3°C° 0 mm 7 mps 736 mmHg 92%
    04:00 -3°C° 0.1 mm 7 mps 736 mmHg 92%
    05:00 -3°C° 0.1 mm 7 mps 735 mmHg 91%
    06:00 -3°C° 0.1 mm 7 mps 735 mmHg 90%
    07:00 -3°C° 0.2 mm 7 mps 735 mmHg 88%
    08:00 -4°C° 0.2 mm 7 mps 735 mmHg 85%
    09:00 -4°C° 0.2 mm 7 mps 735 mmHg 83%
    10:00 -6°C° 0 mm 7 mps 735 mmHg 83%
    11:00 -6°C° 0 mm 7 mps 735 mmHg 83%
    12:00 -6°C° 0 mm 7 mps 735 mmHg 83%
    13:00 -7°C° 0.1 mm 7 mps 735 mmHg 82%
    14:00 -7°C° 0.1 mm 7 mps 736 mmHg 81%
    15:00 -7°C° 0.1 mm 7 mps 736 mmHg 80%
    16:00 -8°C° 0 mm 7 mps 736 mmHg 81%
    17:00 -10°C° 0 mm 6 mps 736 mmHg 82%
    18:00 -11°C° 0 mm 5 mps 737 mmHg 82%
    19:00 -10°C° 0.1 mm 6 mps 737 mmHg 84%
    20:00 -11°C° 0.1 mm 7 mps 737 mmHg 85%
    21:00 -10°C° 0.1 mm 8 mps 738 mmHg 86%
    22:00 -10°C° 0 mm 8 mps 738 mmHg 86%
    23:00 -10°C° 0 mm 8 mps 738 mmHg 85%

    22 February, Friday

    Time Temperature Precipitation Wind Pressure Humidity
    00:00 -10°C° 0 mm 9 mps 739 mmHg 85%
    01:00 -11°C° 0 mm 8 mps 740 mmHg 85%
    02:00 -11°C° 0 mm 8 mps 740 mmHg 84%
    03:00 -11°C° 0 mm 8 mps 741 mmHg 84%
    04:00 -12°C° 0 mm 8 mps 742 mmHg 84%
    05:00 -13°C° 0 mm 7 mps 743 mmHg 85%
    06:00 -14°C° 0 mm 7 mps 744 mmHg 85%
    07:00 -15°C° 0 mm 7 mps 744 mmHg 84%
    08:00 -16°C° 0 mm 8 mps 745 mmHg 84%
    09:00 -17°C° 0 mm 8 mps 746 mmHg 83%
    10:00 -17°C° 0 mm 8 mps 747 mmHg 83%
    11:00 -17°C° 0 mm 8 mps 748 mmHg 83%
    12:00 -17°C° 0 mm 8 mps 748 mmHg 82%
    13:00 -17°C° 0 mm 8 mps 749 mmHg 80%
    14:00 -16°C° 0 mm 8 mps 749 mmHg 79%
    15:00 -16°C° 0 mm 8 mps 750 mmHg 77%
    16:00 -15°C° 0 mm 7 mps 751 mmHg 78%
    17:00 -17°C° 0 mm 7 mps 752 mmHg 80%
    18:00 -16°C° 0 mm 6 mps 752 mmHg 81%
    19:00 -16°C° 0 mm 6 mps 753 mmHg 82%
    20:00 -16°C° 0 mm 6 mps 753 mmHg 82%
    21:00 -17°C° 0 mm 6 mps 754 mmHg 83%
    22:00 -17°C° 0 mm 6 mps 754 mmHg 85%
    23:00 -17°C° 0 mm 5 mps 755 mmHg 86%

    23 February, Saturday

    Time Temperature Precipitation Wind Pressure Humidity
    00:00 -18°C° 0 mm 5 mps 755 mmHg 88%
    01:00 -18°C° 0 mm 5 mps 755 mmHg 89%
    02:00 -18°C° 0 mm 5 mps 756 mmHg 90%
    03:00 -18°C° 0 mm 4 mps 756 mmHg 91%
    04:00 -18°C° 0 mm 4 mps 756 mmHg 92%
    05:00 -18°C° 0 mm 4 mps 756 mmHg 93%
    06:00 -19°C° 0 mm 4 mps 756 mmHg 95%
    07:00 -19°C° 0 mm 4 mps 756 mmHg 95%
    08:00 -18°C° 0 mm 3 mps 756 mmHg 95%
    09:00 -18°C° 0 mm 3 mps 756 mmHg 95%
    10:00 -16°C° 0 mm 3 mps 755 mmHg 93%
    11:00 -15°C° 0 mm 3 mps 755 mmHg 92%
    12:00 -12°C° 0 mm 2 mps 755 mmHg 91%
    13:00 -13°C° 0 mm 3 mps 754 mmHg 91%
    14:00 -12°C° 0 mm 3 mps 753 mmHg 91%
    15:00 -10°C° 0 mm 3 mps 752 mmHg 91%
    16:00 -10°C° 0 mm 3 mps 752 mmHg 92%
    17:00 -10°C° 0 mm 2 mps 751 mmHg 93%
    18:00 -10°C° 0 mm 2 mps 751 mmHg 94%
    19:00 -10°C° 0.1 mm 2 mps 751 mmHg 95%
    20:00 -10°C° 0.1 mm 2 mps 750 mmHg 95%
    21:00 -10°C° 0.1 mm 2 mps 750 mmHg 96%
    22:00 -10°C° 0 mm 2 mps 750 mmHg 96%
    23:00 -10°C° 0 mm 2 mps 750 mmHg 96%
    Show more